Location: Chavannes
(47.1090°N, 0.2226°W)
Time: 13:45:59
(UTC+00:00)

Okean-O - Pass Details

Date: 16 October 2021
Orbit: 639 x 640 km, 98.2° (Epoch: 02 December)

Event Time Altitude Azimuth Distance (km) Brightness Sun altitude
Exits shadow 18:07:39 10° 119° (ESE) 2,070 4.7 -10.3°
Reaches altitude 10° 18:07:46 10° 118° (ESE) 2,032 4.7 -10.3°
Maximum altitude 18:11:20 24° 64° (ENE) 1,321 3.7 -10.9°
Drops below altitude 10° 18:14:54 10° 10° (N) 2,044 5.1 -11.5°
Sets 18:17:26 0° 357° (N) 2,958 6.1 -12.0°
